Flag for Germany Weather past 2 weeks in Homberg (Efze), Hesse, Germany

Now
46 °F

Rain. Low clouds.


Feels Like: 43 °F
Forecast: 41 / 45 °F
Wind: 7 mph from South

Location: Fritzlar

Current Time: Mar 29, 2015 at 1:53:13 AM

Latest Report: Mar 29, 2015 at 1:00 AM


Visibility: 5 mi

Pressure: 29.81 "Hg

Humidity: 92%

Dew point: 44 °F

Location of Homberg (Efze)Location

Historic Weather in Homberg (Efze) — Graph

°F

Homberg (Efze) temperature yesterday

Maximum temperature yesterday: 54 °F (at 3:00 PM)
Minimum temperature yesterday: 29 °F (at 7:00 AM)
Average temperature yesterday: 44 °F

Past Weeks' High & Low Weather Summary

 TemperatureHumidityPressure
High64 °F (Mar 25, 4:00 PM)98% (Mar 20, 8:00 AM)30.37 "Hg (Mar 20, 8:00 AM)
Low26 °F (Mar 23, 6:00 AM)40% (Mar 25, 3:00 PM)29.59 "Hg (Mar 25, 4:00 PM)
Average42 °F78%30.12 "Hg
* Reported Midnight between Mar 13 and Mar 14 — Midnight between Mar 28 and Mar 29, Homberg (Efze), Weather by CustomWeather, © 2015

Note: Actual official high and low records may vary slightly from our data, if they occured in-between our weather recording intervals... More about our weather records

Advertising

Homberg (Efze) weather history for previous 24 hours

 ConditionsComfort  
Time TempWeatherWind HumidityBarometerVisibility
12:00 AM
Sun, Mar 29
47 °FRain. Low clouds.5 mph87%29.85 "Hg6 mi
11:00 PM
Sat, Mar 28
47 °FOvercast.5 mph87%29.86 "Hg9 mi
9:00 PM47 °FLight rain. Overcast.8 mph82%29.93 "Hg9 mi
8:00 PM48 °FOvercast.6 mph72%29.94 "Hg11 mi
7:00 PM48 °FOvercast.5 mph69%29.94 "Hg13 mi
6:00 PM49 °FOvercast.6 mph68%29.96 "Hg13 mi
5:00 PM50 °FLight rain. Overcast.6 mph61%29.97 "Hg11 mi
4:00 PM53 °FLight rain. Overcast.7 mph46%29.98 "Hg16 mi
3:00 PM54 °FOvercast.7 mph42%29.99 "Hg16 mi
2:00 PM53 °FScattered clouds.8 mph45%30.02 "Hg16 mi
1:00 PM53 °FScattered clouds.7 mph46%30.06 "Hg16 mi
12:00 PM49 °FScattered clouds.7 mph52%30.11 "Hg16 mi
11:00 AM50 °FScattered clouds.6 mph53%30.13 "Hg16 mi
10:00 AM46 °FPassing clouds.3 mph66%30.17 "Hg11 mi
9:00 AM40 °FPassing clouds.2 mph80%30.19 "Hg9 mi
8:00 AM34 °FPassing clouds.1 mph87%30.22 "Hg9 mi
7:00 AM29 °FPassing clouds.2 mph94%30.24 "Hg9 mi
6:00 AM32 °FPassing clouds.2 mph88%30.23 "Hg9 mi
5:00 AM32 °FPassing clouds.2 mph89%30.24 "Hg9 mi
4:00 AM33 °FPassing clouds.2 mph89%30.24 "Hg11 mi
3:00 AM34 °FPassing clouds.1 mph87%30.24 "Hg11 mi
2:00 AM37 °FPassing clouds.3 mph80%30.24 "Hg12 mi
1:00 AM42 °FOvercast.2 mph71%30.22 "Hg12 mi
Weather by CustomWeather, © 2015

See weather overviewHow to use our weather pages